• In Russia
  • List of Countries
  • For 7 days
  • Water Temperature
  • Satellite Maps
  • Weather Map
  • Weather Widgets
  • user-avatar
    Login

    Hourly Weather Canberra

    Today, 11 December, Sunday

    Time Temperature Precipitation Wind Pressure Humidity
    00:00 +14°C° 0 mm 1 mps 712 mmHg 93%
    01:00 +14°C° 0 mm 1 mps 712 mmHg 95%
    02:00 +14°C° 0 mm 1 mps 712 mmHg 95%
    03:00 +13°C° 0 mm 1 mps 712 mmHg 96%
    04:00 +13°C° 0 mm 1 mps 712 mmHg 97%
    05:00 +14°C° 0 mm 1 mps 712 mmHg 90%
    06:00 +15°C° 0 mm 1 mps 713 mmHg 84%
    07:00 +16°C° 0 mm 1 mps 713 mmHg 78%
    08:00 +20°C° 0 mm 1 mps 713 mmHg 64%
    09:00 +23°C° 0 mm 1 mps 714 mmHg 50%
    10:00 +26°C° 0 mm 1 mps 714 mmHg 36%
    11:00 +27°C° 0 mm 1 mps 714 mmHg 34%
    12:00 +28°C° 0 mm 1 mps 714 mmHg 31%
    13:00 +29°C° 0 mm 2 mps 713 mmHg 28%
    14:00 +28°C° 0 mm 2 mps 713 mmHg 31%
    15:00 +27°C° 0 mm 2 mps 713 mmHg 35%
    16:00 +27°C° 0 mm 3 mps 712 mmHg 38%
    17:00 +24°C° 0 mm 3 mps 712 mmHg 52%
    18:00 +20°C° 0 mm 3 mps 712 mmHg 66%
    19:00 +18°C° 0 mm 3 mps 712 mmHg 80%
    20:00 +17°C° 0 mm 3 mps 713 mmHg 83%
    21:00 +16°C° 0 mm 3 mps 713 mmHg 86%
    22:00 +16°C° 0 mm 2 mps 714 mmHg 89%
    23:00 +16°C° 0 mm 2 mps 713 mmHg 89%

    Tomorrow, 12 December, Monday

    Time Temperature Precipitation Wind Pressure Humidity
    00:00 +16°C° 0 mm 2 mps 713 mmHg 90%
    01:00 +16°C° 0 mm 1 mps 713 mmHg 91%
    02:00 +15°C° 0 mm 1 mps 713 mmHg 93%
    03:00 +15°C° 0 mm 1 mps 713 mmHg 95%
    04:00 +14°C° 0 mm 1 mps 712 mmHg 96%
    05:00 +15°C° 0 mm 1 mps 713 mmHg 91%
    06:00 +18°C° 0 mm 1 mps 713 mmHg 85%
    07:00 +19°C° 0 mm 1 mps 713 mmHg 79%
    08:00 +22°C° 0 mm 1 mps 713 mmHg 66%
    09:00 +25°C° 0 mm 2 mps 714 mmHg 52%
    10:00 +28°C° 0 mm 2 mps 714 mmHg 39%
    11:00 +29°C° 0 mm 3 mps 713 mmHg 33%
    12:00 +30°C° 0 mm 3 mps 713 mmHg 28%
    13:00 +33°C° 0 mm 3 mps 712 mmHg 23%
    14:00 +33°C° 0 mm 3 mps 712 mmHg 22%
    15:00 +33°C° 0 mm 3 mps 711 mmHg 22%
    16:00 +33°C° 0 mm 3 mps 710 mmHg 22%
    17:00 +29°C° 0 mm 2 mps 710 mmHg 31%
    18:00 +26°C° 0 mm 2 mps 710 mmHg 40%
    19:00 +23°C° 0 mm 1 mps 710 mmHg 48%
    20:00 +22°C° 0 mm 1 mps 710 mmHg 52%
    21:00 +21°C° 0 mm 1 mps 710 mmHg 55%
    22:00 +20°C° 0 mm 1 mps 710 mmHg 58%
    23:00 +19°C° 0 mm 1 mps 709 mmHg 59%

    Day after tomorrow, 13 December, Tuesday

    Time Temperature Precipitation Wind Pressure Humidity
    00:00 +19°C° 0 mm 1 mps 709 mmHg 60%
    01:00 +19°C° 0 mm 1 mps 709 mmHg 61%
    02:00 +18°C° 0 mm 2 mps 709 mmHg 61%
    03:00 +18°C° 0 mm 2 mps 709 mmHg 61%
    04:00 +17°C° 0 mm 2 mps 708 mmHg 62%
    05:00 +20°C° 0 mm 3 mps 709 mmHg 56%
    06:00 +22°C° 0 mm 3 mps 709 mmHg 51%
    07:00 +25°C° 0 mm 4 mps 710 mmHg 45%
    08:00 +27°C° 0 mm 5 mps 710 mmHg 40%
    09:00 +29°C° 0 mm 5 mps 710 mmHg 36%
    10:00 +32°C° 0 mm 6 mps 710 mmHg 31%
    11:00 +32°C° 0 mm 6 mps 709 mmHg 31%
    12:00 +32°C° 0 mm 6 mps 708 mmHg 30%
    13:00 +32°C° 0 mm 6 mps 707 mmHg 30%
    14:00 +32°C° 0 mm 6 mps 707 mmHg 28%
    15:00 +33°C° 0 mm 6 mps 706 mmHg 27%
    16:00 +34°C° 0 mm 6 mps 706 mmHg 25%
    17:00 +32°C° 0 mm 5 mps 706 mmHg 28%
    18:00 +29°C° 0 mm 4 mps 705 mmHg 32%
    19:00 +28°C° 0 mm 3 mps 705 mmHg 36%
    20:00 +27°C° 0 mm 3 mps 705 mmHg 36%
    21:00 +26°C° 0 mm 2 mps 705 mmHg 37%
    22:00 +26°C° 0 mm 2 mps 705 mmHg 38%
    23:00 +25°C° 0 mm 2 mps 705 mmHg 38%

    14 December, Wednesday

    Time Temperature Precipitation Wind Pressure Humidity
    00:00 +25°C° 0 mm 3 mps 704 mmHg 39%
    01:00 +24°C° 0 mm 3 mps 704 mmHg 39%
    02:00 +24°C° 0 mm 3 mps 704 mmHg 41%
    03:00 +23°C° 0 mm 2 mps 704 mmHg 42%
    04:00 +23°C° 0 mm 2 mps 704 mmHg 43%
    05:00 +24°C° 0 mm 3 mps 704 mmHg 41%
    06:00 +25°C° 0 mm 3 mps 705 mmHg 39%
    07:00 +25°C° 0 mm 3 mps 706 mmHg 37%
    08:00 +27°C° 0 mm 4 mps 706 mmHg 34%
    09:00 +28°C° 0 mm 5 mps 706 mmHg 32%
    10:00 +29°C° 0 mm 6 mps 706 mmHg 29%
    11:00 +30°C° 0 mm 6 mps 706 mmHg 27%
    12:00 +32°C° 0 mm 6 mps 706 mmHg 26%
    13:00 +33°C° 0 mm 6 mps 706 mmHg 25%
    14:00 +32°C° 0 mm 6 mps 706 mmHg 27%
    15:00 +30°C° 0 mm 5 mps 706 mmHg 29%
    16:00 +29°C° 0 mm 5 mps 705 mmHg 32%
    17:00 +27°C° 0 mm 4 mps 706 mmHg 38%
    18:00 +25°C° 0 mm 3 mps 706 mmHg 45%
    19:00 +23°C° 0 mm 2 mps 707 mmHg 52%
    20:00 +20°C° 0 mm 2 mps 707 mmHg 57%
    21:00 +19°C° 0 mm 2 mps 707 mmHg 61%
    22:00 +19°C° 0 mm 1 mps 708 mmHg 66%
    23:00 +17°C° 0 mm 2 mps 708 mmHg 72%

    15 December, Thursday

    Time Temperature Precipitation Wind Pressure Humidity
    00:00 +16°C° 0 mm 2 mps 707 mmHg 77%
    01:00 +15°C° 0 mm 2 mps 707 mmHg 82%
    02:00 +15°C° 0 mm 2 mps 707 mmHg 84%
    03:00 +15°C° 0 mm 2 mps 708 mmHg 85%
    04:00 +14°C° 0 mm 2 mps 708 mmHg 87%
    05:00 +15°C° 0 mm 2 mps 708 mmHg 85%
    06:00 +15°C° 0 mm 2 mps 709 mmHg 83%
    07:00 +15°C° 0 mm 2 mps 709 mmHg 81%
    08:00 +16°C° 0.3 mm 2 mps 709 mmHg 81%
    09:00 +16°C° 0.3 mm 2 mps 710 mmHg 82%
    10:00 +16°C° 0.3 mm 2 mps 710 mmHg 82%
    11:00 +16°C° 0.8 mm 2 mps 710 mmHg 84%
    12:00 +16°C° 0.8 mm 2 mps 710 mmHg 86%
    13:00 +16°C° 0.8 mm 2 mps 710 mmHg 88%
    14:00 +16°C° 0.5 mm 2 mps 709 mmHg 88%
    15:00 +16°C° 0.5 mm 2 mps 709 mmHg 87%
    16:00 +16°C° 0.5 mm 2 mps 709 mmHg 87%
    17:00 +15°C° 0.1 mm 2 mps 709 mmHg 89%
    18:00 +15°C° 0.1 mm 2 mps 709 mmHg 90%
    19:00 +14°C° 0.1 mm 2 mps 710 mmHg 92%
    20:00 +14°C° 0 mm 2 mps 710 mmHg 93%
    21:00 +14°C° 0 mm 2 mps 710 mmHg 94%
    22:00 +13°C° 0 mm 1 mps 710 mmHg 96%
    23:00 +13°C° 0 mm 1 mps 710 mmHg 95%

    16 December, Friday

    Time Temperature Precipitation Wind Pressure Humidity
    00:00 +14°C° 0 mm 1 mps 710 mmHg 94%
    01:00 +14°C° 0 mm 1 mps 710 mmHg 94%
    02:00 +14°C° 0 mm 1 mps 710 mmHg 94%
    03:00 +14°C° 0 mm 1 mps 710 mmHg 95%
    04:00 +14°C° 0 mm 1 mps 710 mmHg 96%
    05:00 +14°C° 0 mm 1 mps 710 mmHg 93%
    06:00 +15°C° 0 mm 1 mps 710 mmHg 90%
    07:00 +16°C° 0 mm 1 mps 711 mmHg 87%
    08:00 +18°C° 0.1 mm 1 mps 710 mmHg 83%
    09:00 +18°C° 0.1 mm 2 mps 710 mmHg 79%
    10:00 +19°C° 0.1 mm 2 mps 710 mmHg 74%
    11:00 +19°C° 0.1 mm 2 mps 710 mmHg 71%
    12:00 +20°C° 0.1 mm 2 mps 709 mmHg 68%
    13:00 +21°C° 0.1 mm 2 mps 709 mmHg 65%
    14:00 +23°C° 0 mm 2 mps 708 mmHg 62%
    15:00 +23°C° 0 mm 2 mps 708 mmHg 59%
    16:00 +24°C° 0 mm 2 mps 708 mmHg 56%
    17:00 +23°C° 0 mm 2 mps 708 mmHg 63%
    18:00 +20°C° 0 mm 2 mps 708 mmHg 71%
    19:00 +19°C° 0 mm 2 mps 708 mmHg 78%
    20:00 +18°C° 0 mm 1 mps 708 mmHg 84%
    21:00 +16°C° 0 mm 1 mps 708 mmHg 90%
    22:00 +14°C° 0 mm 1 mps 708 mmHg 97%
    23:00 +14°C° 0 mm 1 mps 708 mmHg 97%
    Show more